Terug naar catalogus

VRSS-2

ActiefWetenschapSSO
NORAD 42954·PAYLOAD·🇻🇪 Venezuela

Gelanceerd Oct 9, 2017 vanaf Jiuquan Satellite Launch Center

Loading…

Volgende Passages (komende 24 uur)

TLE

VersSource: Space-Track

Epoch: Sep 14, 2026, 15:01 UTC

1 42954U 17060A   26257.62591468  .00000090  00000-0  18381-4 0  9995
2 42954  97.8871 291.4922 0018586 159.7927 200.4025 14.81121705481694

Volg VRSS-2 in realtime met AllMySat

Download on the App Store